#timestamp,LO_Frequency,Hit,Temp,Hum 
1480287615.1,286047098.1,N,0.0,0.0
1480287635.9,286047097.9,N,0.0,0.0
1480287655.7,286047095.7,N,0.0,0.0
1480287675.5,286047095.9,N,0.0,0.0
1480287695.4,286047096.1,N,0.0,0.0
1480287715.2,286047096.6,N,0.0,0.0
1480287735.0,286047096.0,N,0.0,0.0
1480287735.9,286047096.0,N,0.0,0.0
1480287755.8,286047097.0,N,0.0,0.0
1480287775.6,286047093.3,N,0.0,0.0
1480287795.5,286047095.3,N,0.0,0.0
1480287815.3,286047094.1,N,0.0,0.0
1480287835.1,286047096.3,N,0.0,0.0
1480287855.9,286047096.0,N,0.0,0.0
1480287875.7,286047098.8,N,0.0,0.0
1480287895.5,286047097.6,N,0.0,0.0
1480287915.4,286047097.6,N,0.0,0.0
1480287935.2,286047096.0,N,0.0,0.0
1480287955.1,286047097.2,N,0.0,0.0
1480287956.0,286047097.2,N,0.0,0.0
1480287975.8,286047097.2,N,0.0,0.0
1480287995.6,286047095.4,N,0.0,0.0
1480288015.5,286047094.6,N,0.0,0.0
1480288035.3,286047096.8,N,0.0,0.0
1480288055.1,286047096.9,N,0.0,0.0
1480288075.9,286047096.6,N,0.0,0.0
1480288095.7,286047095.2,N,0.0,0.0
1480288115.6,286047094.5,N,0.0,0.0
1480288135.4,286047096.9,N,0.0,0.0
1480288155.2,286047096.9,N,0.0,0.0
1480288175.1,286047098.8,N,0.0,0.0
1480288176.0,286047098.8,N,0.0,0.0
1480288195.8,286047098.5,N,0.0,0.0
1480288215.7,286047095.8,N,0.0,0.0
1480288235.5,286047093.3,N,0.0,0.0
1480288255.3,286047096.6,N,0.0,0.0
1480288275.2,286047098.5,N,0.0,0.0
1480288295.0,286047097.6,N,0.0,0.0
1480288295.9,286047097.6,N,0.0,0.0
1480288315.8,286047097.7,N,0.0,0.0
1480288335.6,286047097.7,N,0.0,0.0
1480288355.4,286047100.1,N,0.0,0.0
1480288375.3,286047096.9,N,0.0,0.0
1480288395.1,286047098.4,N,0.0,0.0
1480288415.8,286047100.4,N,0.0,0.0
1480288435.7,286047100.2,N,0.0,0.0
1480288455.5,286047099.4,N,0.0,0.0
1480288475.4,286047099.1,N,0.0,0.0
1480288495.2,286047101.6,N,0.0,0.0
1480288515.0,286047101.2,N,0.0,0.0
1480288515.9,286047101.2,N,0.0,0.0
1480288535.8,286047101.8,N,0.0,0.0
1480288555.6,286047099.3,N,0.0,0.0
1480288575.4,286047099.3,N,0.0,0.0
1480288595.3,286047098.2,N,0.0,0.0
1480288615.1,286047098.5,N,0.0,0.0
1480288635.9,286047097.4,N,0.0,0.0
1480288655.7,286047099.6,N,0.0,0.0
1480288675.5,286047099.6,N,0.0,0.0
1480288695.4,286047099.0,N,0.0,0.0
1480288715.2,286047100.7,N,0.0,0.0
1480288735.0,286047101.5,N,0.0,0.0
1480288736.0,286047101.5,N,0.0,0.0
1480288755.8,286047101.2,N,0.0,0.0
1480288775.6,286047100.8,N,0.0,0.0
1480288795.5,286047101.4,N,0.0,0.0
1480288815.3,286047097.8,N,0.0,0.0
1480288835.1,286047094.6,N,0.0,0.0
1480288855.9,286047097.9,N,0.0,0.0
1480288875.7,286047101.9,N,0.0,0.0
1480288895.6,286047100.5,N,0.0,0.0
1480288915.4,286047102.8,N,0.0,0.0
1480288935.2,286047102.1,N,0.0,0.0
1480288955.1,286047104.9,N,0.0,0.0
1480288956.0,286047104.9,N,0.0,0.0
1480288975.8,286047104.9,N,0.0,0.0
1480288995.7,286047106.6,N,0.0,0.0
1480289015.5,286047103.7,N,0.0,0.0
1480289035.3,286047104.2,N,0.0,0.0
1480289055.2,286047103.8,N,0.0,0.0
1480289075.9,286047104.8,N,0.0,0.0
1480289095.7,286047102.1,N,0.0,0.0
1480289115.6,286047102.3,N,0.0,0.0
1480289135.4,286047105.0,N,0.0,0.0
1480289155.3,286047101.6,N,0.0,0.0
1480289175.1,286047098.7,N,0.0,0.0
1480289176.0,286047098.7,N,0.0,0.0
1480289195.8,286047095.8,N,0.0,0.0
1480289215.7,286047098.2,N,0.0,0.0
1480289235.5,286047099.9,N,0.0,0.0
1480289255.3,286047101.8,N,0.0,0.0
1480289275.2,286047103.5,N,0.0,0.0
1480289295.0,286047103.5,N,0.0,0.0
1480289295.9,286047103.5,N,0.0,0.0
1480289315.8,286047105.2,N,0.0,0.0
1480289335.6,286047102.9,N,0.0,0.0
1480289355.4,286047105.1,N,0.0,0.0
1480289375.3,286047104.7,N,0.0,0.0
1480289395.1,286047104.1,N,0.0,0.0
1480289415.9,286047105.5,N,0.0,0.0
1480289435.7,286047105.3,N,0.0,0.0
1480289455.5,286047107.8,N,0.0,0.0
1480289475.4,286047107.6,N,0.0,0.0
1480289495.2,286047107.5,N,0.0,0.0
1480289515.0,286047107.5,N,0.0,0.0
1480289515.9,286047107.5,N,0.0,0.0
1480289535.8,286047107.6,N,0.0,0.0
1480289555.6,286047104.2,N,0.0,0.0
1480289575.5,286047106.2,N,0.0,0.0
1480289595.3,286047105.4,N,0.0,0.0
1480289615.1,286047107.8,N,0.0,0.0
1480289635.9,286047106.5,N,0.0,0.0
1480289655.7,286047101.2,N,0.0,0.0
1480289675.5,286047098.6,N,0.0,0.0
1480289695.4,286047099.7,N,0.0,0.0
1480289715.2,286047100.6,N,0.0,0.0
1480289735.1,286047105.1,N,0.0,0.0
1480289736.0,286047105.1,N,0.0,0.0
1480289755.8,286047104.0,N,0.0,0.0
1480289775.6,286047106.7,N,0.0,0.0
1480289795.5,286047105.4,N,0.0,0.0
1480289815.3,286047108.1,N,0.0,0.0
1480289835.1,286047103.7,N,0.0,0.0
1480289855.9,286047104.0,N,0.0,0.0
1480289875.7,286047101.0,N,0.0,0.0
1480289895.6,286047104.4,N,0.0,0.0
1480289915.4,286047105.5,N,0.0,0.0
1480289935.2,286047107.1,N,0.0,0.0
1480289955.1,286047109.4,N,0.0,0.0
1480289956.0,286047109.4,N,0.0,0.0
1480289975.8,286047106.2,N,0.0,0.0
1480289995.7,286047108.1,N,0.0,0.0
1480290015.5,286047107.0,N,0.0,0.0
1480290035.3,286047109.1,N,0.0,0.0
1480290055.2,286047111.6,N,0.0,0.0
1480290075.0,286047107.3,N,0.0,0.0
1480290075.9,286047107.3,N,0.0,0.0
1480290095.8,286047107.8,N,0.0,0.0
1480290115.6,286047107.5,N,0.0,0.0
1480290135.4,286047109.7,N,0.0,0.0
1480290155.3,286047109.2,N,0.0,0.0
1480290175.1,286047111.5,N,0.0,0.0
1480290195.8,286047110.4,N,0.0,0.0
1480290215.7,286047113.0,N,0.0,0.0
1480290235.5,286047111.7,N,0.0,0.0
1480290255.4,286047111.2,N,0.0,0.0
1480290275.2,286047109.6,N,0.0,0.0
1480290295.0,286047108.5,N,0.0,0.0
1480290295.9,286047108.5,N,0.0,0.0
1480290315.8,286047108.4,N,0.0,0.0
1480290335.6,286047104.4,N,0.0,0.0
1480290355.4,286047104.2,N,0.0,0.0
1480290375.3,286047105.7,N,0.0,0.0
1480290395.1,286047108.0,N,0.0,0.0
1480290415.9,286047104.2,N,0.0,0.0
1480290435.7,286047104.0,N,0.0,0.0
1480290455.5,286047108.0,N,0.0,0.0
1480290475.4,286047108.1,N,0.0,0.0
1480290495.2,286047102.1,N,0.0,0.0
1480290515.1,286047102.6,N,0.0,0.0
1480290516.0,286047102.6,N,0.0,0.0
1480290535.8,286047105.9,N,0.0,0.0
1480290555.6,286047107.5,N,0.0,0.0
1480290575.5,286047107.1,N,0.0,0.0
1480290595.3,286047109.7,N,0.0,0.0
1480290615.1,286047111.2,N,0.0,0.0
1480290635.9,286047107.0,N,0.0,0.0
1480290655.7,286047107.3,N,0.0,0.0
1480290675.6,286047111.5,N,0.0,0.0
1480290695.4,286047113.2,N,0.0,0.0
1480290715.2,286047112.9,N,0.0,0.0
1480290735.1,286047111.8,N,0.0,0.0
1480290736.0,286047111.8,N,0.0,0.0
1480290755.8,286047113.7,N,0.0,0.0
1480290775.7,286047116.1,N,0.0,0.0
1480290795.5,286047115.9,N,0.0,0.0
1480290815.3,286047116.3,N,0.0,0.0
1480290835.2,286047115.5,N,0.0,0.0
1480290855.0,286047115.7,N,0.0,0.0
1480290855.9,286047115.7,N,0.0,0.0
1480290875.8,286047115.5,N,0.0,0.0
1480290895.6,286047115.8,N,0.0,0.0
1480290915.4,286047116.2,N,0.0,0.0
1480290935.3,286047115.5,N,0.0,0.0
1480290955.1,286047114.9,N,0.0,0.0
1480290975.8,286047115.5,N,0.0,0.0
1480290995.7,286047115.5,N,0.0,0.0
1480291015.5,286047111.7,N,0.0,0.0
1480291035.4,286047113.9,N,0.0,0.0
1480291055.2,286047114.7,N,0.0,0.0
1480291075.0,286047110.3,N,0.0,0.0
1480291075.9,286047110.3,N,0.0,0.0
1480291095.8,286047114.3,N,0.0,0.0
1480291115.6,286047113.8,N,0.0,0.0
1480291135.5,286047113.7,N,0.0,0.0
1480291155.3,286047115.9,N,0.0,0.0
1480291175.1,286047113.8,N,0.0,0.0
1480291195.9,286047111.9,N,0.0,0.0
